Nashua, NH

9:05 AM EDT on September 29, 2016 (GMT -0400)
Boire

Weather History for KASH - July, 2012

Change the Weather History Date:

Thursday, July 12, 2012

  Actual Average Record
Temperature  
Mean Temperature 77 °F -  
Max Temperature 91 °F 80 °F 94 °F (1966)
Min Temperature 63 °F 56 °F 40 °F (1986)
Cooling Degree Days 12    
Growing Degree Days 27 (Base 50)    
Moisture  
Dew Point 59 °F    
Average Humidity 55    
Maximum Humidity 93    
Minimum Humidity 23    
Precipitation  
Precipitation 0.00 in - - ()
Sea Level Pressure  
Sea Level Pressure 30.15 in    
Wind  
Wind Speed 2 mph (WNW)    
Max Wind Speed 8 mph    
Max Gust Speed -    
Visibility 10 miles    
Events      
Averages and records for this station are not official NWS values.
T = Trace of Precipitation, MM = Missing Value Source: NWS Daily Summary

Daily Weather History Graph

Daily Weather History Graph

Search for Another Location

Airport or City:

Trip Planner

Search our weather history database for the weather conditions in past years. The results will help you decide how hot, cold, wet, or windy it might be!

Date:

Astronomy

Jul. 12, 2012 Rise Set
Actual Time 5:19 AM EDT 8:23 PM EDT
Civil Twilight 4:44 AM EDT 8:58 PM EDT
Nautical Twilight 4:01 AM EDT 9:41 PM EDT
Astronomical Twilight 3:09 AM EDT 10:33 PM EDT
Moon 12:24 AM EDT (7/12) 2:51 PM EDT (7/12)
Length of Visible Light 16h 13m
Length of Day
15h 04m
Waning Crescent, 35% of the Moon is Illuminated
Jul 12
Waning Crescent
Jul 19
New
Jul 26
First Quarter
Aug 1
Full
Aug 9
Last Quarter

Hourly Weather History & Observations

Time (EDT) Temp. Heat Index Dew Point Humidity Pressure Visibility Wind Dir Wind Speed Gust Speed Precip Events Conditions
12:51 AM 70.0 °F - 61.9 °F 75% 30.20 in 10.0 mi Calm Calm - N/A   Clear
1:51 AM 68.0 °F - 61.9 °F 81% 30.19 in 10.0 mi Calm Calm - N/A   Clear
2:51 AM 65.8 °F - 61.0 °F 84% 30.19 in 10.0 mi Calm Calm - N/A   Clear
3:51 AM 63.9 °F - 61.0 °F 90% 30.18 in 10.0 mi Calm Calm - N/A   Clear
4:51 AM 63.0 °F - 61.0 °F 93% 30.19 in 10.0 mi Calm Calm - N/A   Clear
5:51 AM 63.0 °F - 61.0 °F 93% 30.20 in 10.0 mi Calm Calm - N/A   Clear
6:51 AM 66.9 °F - 61.0 °F 81% 30.20 in 10.0 mi Calm Calm - N/A   Clear
7:51 AM 72.9 °F - 59.9 °F 64% 30.19 in 10.0 mi Calm Calm - N/A   Clear
8:51 AM 77.0 °F - 57.9 °F 52% 30.19 in 10.0 mi NW 4.6 mph - N/A   Clear
9:51 AM 81.0 °F 81.6 °F 59.9 °F 49% 30.18 in 10.0 mi Calm Calm - N/A   Clear
10:51 AM 86.0 °F 85.4 °F 59.0 °F 40% 30.17 in 10.0 mi West 5.8 mph - N/A   Clear
11:51 AM 88.0 °F 87.1 °F 59.0 °F 37% 30.16 in 10.0 mi Variable 3.5 mph - N/A   Clear
12:51 PM 88.9 °F 88.0 °F 59.0 °F 36% 30.15 in 10.0 mi West 8.1 mph - 0.00 in   Scattered Clouds
1:51 PM 90.0 °F 88.8 °F 57.9 °F 34% 30.13 in 10.0 mi Variable 6.9 mph - N/A   Clear
2:51 PM 90.9 °F 88.7 °F 54.9 °F 29% 30.12 in 10.0 mi WNW 8.1 mph - N/A   Partly Cloudy
3:51 PM 90.9 °F 89.4 °F 56.8 °F 32% 30.11 in 10.0 mi Variable 4.6 mph - N/A   Partly Cloudy
4:51 PM 91.9 °F - 48.9 °F 23% 30.10 in 10.0 mi West 6.9 mph - N/A   Clear
5:51 PM 91.9 °F - 52.9 °F 26% 30.09 in 10.0 mi NW 5.8 mph - N/A   Clear
6:51 PM 91.9 °F 90.3 °F 55.9 °F 30% 30.09 in 10.0 mi Variable 3.5 mph - N/A   Clear
7:51 PM 84.9 °F 85.0 °F 61.0 °F 44% 30.10 in 10.0 mi Calm Calm - N/A   Clear
8:51 PM 81.0 °F 82.5 °F 63.9 °F 56% 30.11 in 10.0 mi Variable 4.6 mph - N/A   Clear
9:51 PM 79.0 °F - 61.9 °F 56% 30.13 in 10.0 mi Variable 5.8 mph - N/A   Clear
10:51 PM 77.0 °F - 61.0 °F 58% 30.14 in 10.0 mi Variable 3.5 mph - N/A   Clear